Weather History for KRBD - January, 2014

Change the Weather History Date:

Monday, January 13, 2014

  Actual Average Record
Temperature  
Mean Temperature 54 °F -  
Max Temperature 64 °F 54 °F 69 °F (2004)
Min Temperature 42 °F 36 °F 19 °F (1997)
Degree Days  
Heating Degree Days 12    
Growing Degree Days 4 (Base 50)    
Moisture  
Dew Point 33 °F    
Average Humidity 46    
Maximum Humidity 83    
Minimum Humidity 20    
Precipitation  
Precipitation 0.00 in - - ()
Sea Level Pressure  
Sea Level Pressure 29.95 in    
Wind  
Wind Speed 13 mph (West)    
Max Wind Speed 20 mph    
Max Gust Speed 31 mph    
Visibility 10 miles    
Events      
Averages and records for this station are not official NWS values.
T = Trace of Precipitation, MM = Missing Value Source: NWS Daily Summary

Daily Weather History Graph

Daily Weather History Graph

Search for Another Location

Airport or City:

Trip Planner

Search our weather history database for the weather conditions in past years. The results will help you decide how hot, cold, wet, or windy it might be!

Date:

Astronomy

Jan. 13, 2014 Rise Set
Actual Time 7:30 AM CST 5:42 PM CST
Civil Twilight 7:03 AM CST 6:09 PM CST
Nautical Twilight 6:33 AM CST 6:39 PM CST
Astronomical Twilight 6:03 AM CST 7:09 PM CST
Moon 3:57 PM CST (1/13) 5:20 AM CST (1/13)
Length of Visible Light 11h 06m
Length of Day
10h 12m
Waxing Gibbous, 95% of the Moon is Illuminated
Jan 13
Waxing Gibbous
Jan 15
Full
Jan 23
Last Quarter
Jan 30
New
Feb 6
First Quarter

Hourly Weather History & Observations

Time (CST) Temp. Windchill Dew Point Humidity Pressure Visibility Wind Dir Wind Speed Gust Speed Precip Events Conditions
12:53 AM 64.0 °F - 55.9 °F 75% 29.77 in 10.0 mi SSW 16.1 mph 27.6 mph N/A   Overcast
1:53 AM 64.0 °F - 57.0 °F 78% 29.76 in 10.0 mi SSW 9.2 mph 27.6 mph N/A   Overcast
2:51 AM 62.6 °F - 57.2 °F 82% 29.80 in 10.0 mi SW 9.2 mph 20.7 mph N/A   Mostly Cloudy
2:53 AM 63.0 °F - 57.0 °F 81% 29.78 in 10.0 mi SW 10.4 mph 19.6 mph N/A   Mostly Cloudy
3:10 AM 62.6 °F - 57.2 °F 82% 29.79 in 10.0 mi SW 8.1 mph 18.4 mph N/A   Partly Cloudy
3:53 AM 61.0 °F - 55.9 °F 83% 29.79 in 10.0 mi WSW 8.1 mph - N/A   Clear
4:53 AM 59.0 °F - 51.1 °F 75% 29.79 in 10.0 mi WNW 15.0 mph - N/A   Clear
5:53 AM 53.1 °F - 35.1 °F 50% 29.85 in 10.0 mi NNW 16.1 mph 21.9 mph N/A   Clear
6:53 AM 51.1 °F - 33.1 °F 50% 29.89 in 10.0 mi NNW 16.1 mph 23.0 mph N/A   Clear
7:53 AM 50.0 °F - 32.0 °F 50% 29.94 in 10.0 mi NW 13.8 mph - N/A   Clear
8:53 AM 52.0 °F - 28.9 °F 41% 29.99 in 10.0 mi NNW 15.0 mph 24.2 mph N/A   Clear
9:53 AM 54.0 °F - 28.0 °F 37% 30.03 in 10.0 mi NNW 15.0 mph - N/A   Clear
10:53 AM 57.0 °F - 28.0 °F 33% 30.04 in 10.0 mi NW 16.1 mph - N/A   Clear
11:53 AM 61.0 °F - 28.0 °F 29% 30.02 in 10.0 mi NW 17.3 mph 25.3 mph N/A   Clear
12:53 PM 63.0 °F - 26.1 °F 25% 30.00 in 10.0 mi NW 18.4 mph 25.3 mph N/A   Clear
1:53 PM 64.9 °F - 25.0 °F 22% 29.99 in 10.0 mi NW 17.3 mph 28.8 mph N/A   Clear
2:53 PM 63.0 °F - 23.0 °F 22% 30.01 in 10.0 mi WNW 19.6 mph 31.1 mph N/A   Clear
3:53 PM 63.0 °F - 21.0 °F 20% 30.02 in 10.0 mi WNW 15.0 mph 25.3 mph N/A   Clear
4:53 PM 61.0 °F - 19.9 °F 21% 30.02 in 10.0 mi NW 13.8 mph 23.0 mph N/A   Clear
5:53 PM 57.0 °F - 19.9 °F 24% 30.03 in 10.0 mi WNW 8.1 mph - N/A   Clear
6:53 PM 54.0 °F - 19.0 °F 25% 30.06 in 10.0 mi West 6.9 mph - N/A   Clear
7:53 PM 51.1 °F - 19.0 °F 28% 30.07 in 10.0 mi West 6.9 mph - N/A   Clear
8:53 PM 46.0 °F 43.1 °F 19.9 °F 35% 30.07 in 10.0 mi WSW 5.8 mph - N/A   Clear
9:53 PM 44.1 °F 40.8 °F 21.0 °F 40% 30.07 in 10.0 mi WSW 5.8 mph - N/A   Clear
10:53 PM 43.0 °F 39.5 °F 19.9 °F 40% 30.07 in 10.0 mi WSW 5.8 mph - N/A   Clear
11:53 PM 42.1 °F 37.7 °F 19.0 °F 40% 30.06 in 10.0 mi WSW 6.9 mph - N/A   Clear